Location: Chavenne
(46.6022°N, 3.2951°E)
Time: 03:45:29
(UTC+00:00)

Cosmos 1656 Rocket - Pass Details

Date: 09 April 2020
Orbit: 796 x 846 km, 71.1° (Epoch: 02 June)

Event Time Altitude Azimuth Distance (km) Brightness Sun altitude
Rises 19:04:03 0° 331° (NNW) 3,409 7.7 -6.9°
Reaches altitude 10° 19:06:31 10° 330° (NNW) 2,465 7.0 -7.3°
Maximum altitude 19:12:09 71° 247° (WSW) 879 4.0 -8.2°
Drops below altitude 10° 19:17:40 10° 164° (SSE) 2,418 5.7 -9.1°
Sets 19:20:04 0° 163° (SSE) 3,338 6.4 -9.5°
